Temp
20 21 22 25 26 27 28 28 30 29 28 28 27 27 27 25 25 26 20 19 21 21 20 18 17 18 18 19 19 19 19 19 19 19 19 19 18 18 18 18 18 18 18 17 17 17 16 17 18
21 22 24 27 26 27 28 29 28 28 27 26 26 25 27 24 22 20 18 19 21 20 20 19 18 18 19 19 19 19 18 19 18 19 18 18 17 18 18 18 18 18 17 17 17 16 17 18 18
21 22 27 27 27 27 28 28 28 27 26 27 27 26 24 24 23 21 20 19 20 20 20 19 18 19 19 19 19 18 18 18 18 18 17 17 18 18 18 18 18 17 17 17 17 18 18 18 18
24 26 26 26 26 27 28 28 27 27 26 26 27 26 24 20 22 21 20 18 19 19 20 17 18 19 19 19 18 17 16 17 17 17 17 18 18 18 18 18 18 18 18 18 18 18 18 18 18
24 27 26 26 26 27 28 28 26 26 26 26 26 25 24 18 19 20 19 18 18 18 18 16 17 18 17 17 16 16 17 17 17 17 17 17 18 18 18 18 19 19 19 19 18 18 18 17 17
26 26 26 26 26 27 28 27 26 26 26 25 26 26 22 16 17 17 19 18 18 17 17 16 16 16 16 16 16 17 17 18 17 17 17 18 17 18 18 18 19 19 19 19 18 18 17 17 17
26 26 26 26 26 27 26 25 25 26 26 25 25 25 20 17 15 16 17 17 17 16 16 16 16 16 16 15 16 17 17 17 17 17 17 18 18 18 18 18 18 18 18 18 18 18 17 17 17
26 26 26 26 26 26 26 25 24 24 25 23 24 25 21 16 15 15 16 16 16 16 15 15 15 15 15 16 17 17 17 17 18 18 17 17 18 18 18 18 18 18 18 18 17 17 17 17 16
26 26 26 26 26 26 25 25 23 23 25 23 22 23 20 15 16 15 14 14 13 14 14 13 13 13 13 15 15 16 17 17 18 18 17 18 17 17 18 17 17 17 17 17 17 17 17 17 16
26 26 26 28 28 27 26 25 25 24 24 24 20 16 15 16 16 15 14 12 12 12 12 12 12 12 14 15 15 16 16 17 17 18 17 18 18 18 18 16 17 17 17 17 17 16 16 17 17
26 26 27 27 27 26 25 25 24 25 25 25 22 16 16 16 16 15 14 14 11 11 10 11 11 12 12 14 15 15 15 16 16 17 17 17 17 17 17 16 16 16 16 16 16 16 17 16 16
25 27 27 27 25 25 24 23 23 24 22 22 20 17 16 15 16 15 13 12 11 11 11 10 10 11 13 14 15 16 17 17 17 17 17 17 18 17 18 18 17 17 17 16 16 16 15 15 15
25 26 26 25 25 25 24 25 22 20 20 20 19 17 16 15 15 14 13 12 12 12 12 11 12 12 14 14 15 14 15 16 17 16 17 18 18 17 18 17 17 17 16 16 16 15 15 14 14
26 26 26 24 24 25 25 24 24 21 22 21 20 18 16 15 14 14 14 14 13 12 12 12 12 13 13 14 15 15 15 16 16 17 17 16 17 17 17 16 16 16 16 16 16 16 15 15 14
26 26 26 25 25 25 25 25 24 22 22 21 21 20 17 16 16 14 15 15 15 14 13 13 14 15 16 16 16 16 16 16 17 17 16 16 17 16 16 16 16 16 15 15 15 14 14 15 14
26 26 26 27 25 25 25 25 23 23 22 22 22 21 19 16 17 16 16 16 17 16 16 15 15 15 15 16 16 17 17 17 17 17 16 15 15 15 15 15 15 15 15 15 15 15 15 15 14
26 26 26 27 26 26 26 26 25 23 23 23 22 22 21 18 17 18 17 17 18 18 17 16 15 16 16 16 16 16 16 17 17 16 16 15 15 14 15 15 15 14 15 14 14 14 15 14 14
26 26 26 26 27 26 26 26 26 24 23 24 24 23 22 20 19 18 19 19 18 18 18 17 16 16 16 16 16 16 17 17 17 16 16 15 15 15 15 15 14 14 14 14 14 14 14 14 14
26 26 26 27 27 26 26 27 27 25 23 24 24 24 23 23 22 20 19 19 19 18 18 17 17 17 16 16 16 17 17 17 16 15 15 14 15 14 15 15 13 14 14 14 13 13 13 13 12
25 26 26 26 25 25 27 27 27 26 24 24 25 25 24 24 23 21 20 20 19 19 18 18 18 17 17 17 17 18 18 17 17 16 15 14 15 14 14 14 14 14 13 12 12 13 13 13 12
25 25 25 25 25 25 25 26 25 26 25 25 25 26 25 25 24 23 21 21 20 20 19 18 18 18 18 18 18 17 17 17 16 14 14 14 14 14 14 13 14 13 13 13 12 12 12 13 11
25 26 25 25 25 26 25 26 26 27 25 25 25 25 26 25 25 25 23 22 21 20 20 19 19 19 18 18 18 17 18 18 17 15 14 14 13 13 13 13 13 12 13 12 12 12 12 11 11
25 25 25 25 26 25 26 26 27 25 27 27 26 26 26 27 26 25 25 23 22 21 20 19 19 19 18 17 18 17 18 19 19 16 15 14 13 12 12 12 12 12 12 12 11 10 10 10 9
24 25 25 25 25 24 26 26 27 28 28 28 28 28 27 27 26 26 26 24 23 22 20 19 19 19 18 17 16 17 17 18 15 15 14 13 12 12 11 11 11 11 11 10 10 10 9 8 7
25 25 24 23 23 24 24 25 27 28 28 27 27 28 28 27 27 27 27 26 24 23 21 19 19 19 17 16 16 15 15 16 14 14 14 13 12 10 10 10 10 10 10 10 9 9 7 7 8
25 25 24 22 23 24 23 24 27 27 27 27 26 26 26 27 27 27 27 26 25 24 22 19 19 18 16 15 15 16 14 14 13 14 14 13 11 10 10 10 9 10 9 8 9 8 8 7 8
24 24 25 23 21 23 25 26 27 27 27 27 27 26 27 26 27 27 27 26 25 24 22 20 19 18 18 15 17 17 14 13 13 13 13 11 11 10 10 9 9 8 8 9 8 7 6 7 8
25 25 23 24 22 22 24 25 26 26 27 27 27 28 27 26 25 25 25 25 24 23 22 20 19 20 19 15 16 14 14 13 13 13 12 11 10 10 9 9 8 7 8 8 7 7 7 8 7
24 24 24 24 24 22 22 24 27 27 27 27 27 27 27 27 26 25 24 23 22 21 21 20 19 20 19 17 16 14 13 13 13 12 11 10 10 10 8 8 8 7 8 7 7 7 7 6 5
26 25 25 23 23 22 22 24 27 27 27 26 27 26 26 26 26 25 24 22 21 21 20 19 19 19 19 18 17 15 14 13 12 11 10 9 8 8 7 8 7 8 7 6 6 6 6 5 5
Height
794 794 794 790 794 783 778 773 761 764 765 761 762 764 768 776 776 783 784 784 787 791 796 801 803 806 809 813 817 819 823 825 828 831 834 836 839 842 842 846 848 849 851 853 854 857 857 858 860
795 794 792 781 793 786 775 763 769 763 765 766 768 769 765 779 780 784 786 784 787 792 797 803 804 807 811 815 818 820 824 827 831 833 837 838 842 843 846 847 850 852 853 856 857 859 861 861 862
795 793 784 780 781 783 774 767 767 768 767 765 767 766 772 779 779 784 783 780 788 793 798 803 806 809 813 816 820 823 825 829 832 835 838 840 844 846 848 850 852 854 858 859 861 862 863 864 864
792 789 785 786 781 772 770 766 767 765 766 765 761 771 775 782 780 782 783 786 789 794 798 803 807 812 816 819 821 824 828 830 833 838 839 842 846 848 850 853 854 856 859 861 863 864 866 867 867
792 783 783 782 777 772 767 766 769 768 766 765 765 771 776 784 782 783 785 787 791 794 798 803 808 813 818 822 824 826 830 832 836 841 843 845 849 852 853 856 858 859 861 864 866 867 868 871 870
785 782 785 780 774 768 766 766 768 768 766 768 766 765 779 787 787 787 786 788 792 795 799 805 811 816 822 825 827 828 832 834 839 842 845 848 852 853 857 859 862 863 865 866 867 870 872 873 873
786 782 780 779 778 772 769 768 771 768 766 769 768 771 785 788 787 786 788 790 794 798 798 807 814 819 825 830 830 831 835 836 841 844 848 851 854 856 860 863 864 867 868 869 870 872 874 876 876
783 781 781 777 776 774 769 772 773 772 769 774 774 771 784 788 789 788 789 792 793 799 792 803 813 820 824 832 830 837 838 838 842 847 853 855 858 860 862 866 867 869 870 872 873 874 876 878 879
783 783 779 778 776 773 771 773 774 773 770 773 777 775 780 788 791 791 792 794 797 800 803 809 812 822 830 837 840 840 842 843 844 850 853 859 864 865 866 867 870 871 872 873 875 876 878 880 879
781 780 775 766 765 769 768 770 769 774 772 772 782 787 790 791 792 793 795 800 802 803 807 811 818 823 833 836 843 843 847 850 848 852 856 862 865 867 867 868 871 873 874 876 877 879 878 881 881
777 777 768 766 767 768 772 770 770 771 769 768 775 788 791 792 794 797 800 804 805 807 810 814 818 824 829 833 842 844 850 849 851 853 859 862 864 867 870 870 873 874 876 878 879 881 881 882 882
785 769 769 769 772 772 774 773 776 774 779 777 782 788 793 795 798 800 804 807 809 814 817 821 824 829 836 840 844 846 849 852 854 858 861 861 864 866 869 871 873 875 875 878 878 881 881 882 882
783 773 770 772 772 770 773 772 779 785 784 784 788 791 794 799 801 805 807 811 814 817 821 827 830 834 836 840 844 847 853 853 856 861 860 863 863 865 868 870 872 874 874 877 878 880 881 882 881
775 774 771 774 774 769 773 773 774 783 782 785 788 793 797 802 802 807 810 813 818 820 824 828 833 838 841 845 848 849 849 852 858 861 860 862 862 864 867 869 871 872 875 876 877 880 880 881 882
773 777 771 772 772 770 769 771 776 779 783 788 790 793 800 803 805 808 813 816 818 825 829 833 835 838 841 843 846 850 852 855 857 859 860 861 862 864 866 868 870 872 873 874 876 878 879 879 880
775 772 779 765 770 769 771 774 776 777 781 786 788 792 798 805 806 809 813 817 820 824 828 833 837 839 841 843 846 849 850 853 855 857 858 860 861 862 865 867 869 870 871 873 876 877 878 877 879
772 774 775 769 764 768 769 770 770 777 779 781 787 791 795 804 809 808 813 817 820 823 827 830 834 837 840 843 845 847 850 851 852 855 856 858 859 860 863 865 866 868 870 871 874 876 876 877 878
776 776 771 772 766 768 767 768 766 774 776 779 781 787 793 799 805 807 809 814 818 821 825 829 833 836 839 841 844 846 848 850 852 854 855 856 857 859 862 864 864 866 869 869 872 874 874 876 877
770 771 772 767 763 769 765 763 762 768 776 777 778 781 787 790 797 804 807 810 815 819 824 827 830 833 836 838 840 843 845 848 851 851 853 854 856 857 860 862 862 865 866 868 870 873 873 875 876
774 773 772 769 769 771 758 763 756 760 770 772 773 775 779 784 790 797 802 807 810 814 818 822 825 829 832 835 838 840 843 844 846 849 851 851 853 855 857 859 860 863 864 868 869 870 872 874 875
775 775 775 774 770 767 769 765 765 761 764 767 768 767 771 776 781 789 795 800 804 807 812 816 820 824 827 831 833 837 839 841 843 846 846 848 850 852 854 855 858 860 862 865 866 867 868 870 872
778 766 772 774 775 774 769 774 761 756 763 763 763 764 764 769 775 779 786 791 796 802 807 811 815 819 822 826 828 832 833 834 838 840 842 844 847 850 850 851 854 856 858 861 863 863 864 866 867
771 769 772 772 769 772 769 770 755 759 757 752 753 755 757 759 765 770 774 781 789 795 801 806 810 813 817 821 825 828 829 829 831 837 838 840 843 846 848 850 852 854 854 856 860 861 861 862 864
768 771 773 772 769 783 766 769 755 750 747 742 741 745 750 754 757 761 767 775 780 787 793 798 803 806 812 818 822 825 825 826 828 831 832 836 839 842 845 848 850 853 853 854 857 858 858 858 861
767 773 784 789 786 786 770 774 753 741 742 743 742 741 742 746 750 755 759 764 769 776 783 789 793 797 804 808 810 813 818 821 823 825 826 828 833 836 839 843 846 849 851 853 854 855 856 856 857
764 764 779 799 792 777 779 775 751 741 740 740 739 739 741 740 741 744 749 756 762 768 776 781 784 790 795 802 805 810 812 814 818 821 822 825 825 829 832 837 841 845 847 850 851 853 854 858 856
765 773 760 778 791 785 766 758 743 743 743 740 738 738 736 736 737 739 743 749 756 763 769 775 780 785 789 795 797 797 802 808 812 816 818 819 821 824 828 833 836 839 842 846 848 851 854 853 855
758 755 775 771 794 794 768 767 755 748 744 740 737 734 732 734 736 739 743 747 752 757 764 771 775 779 784 790 791 795 801 803 806 809 811 812 816 820 824 830 833 836 838 842 844 846 853 853 854
762 763 763 761 769 782 784 767 739 741 739 738 738 736 733 732 734 738 742 746 751 756 761 767 771 775 778 783 789 793 796 799 800 803 806 808 811 814 819 823 828 830 833 837 841 846 849 849 850
741 749 753 769 773 774 778 766 732 734 737 738 736 737 735 735 734 736 740 744 748 752 757 763 767 771 775 780 784 789 792 794 797 800 803 806 810 813 818 822 824 826 831 835 839 843 847 846 845
Wind_Speed
3 3 3 6 7 6 13 8 5 6 4 4 2 4 3 5 4 3 1 9 22 28 30 30 33 33 33 35 34 33 31 29 28 29 30 30 29 28 29 27 24 24 22 22 23 23 24 24 24
2 3 6 2 8 11 11 3 10 2 4 1 3 4 5 3 4 1 4 14 27 27 29 29 34 34 35 35 34 32 29 29 31 32 32 31 30 30 28 27 24 23 22 22 23 24 23 24 23
2 4 6 4 7 11 9 3 3 1 2 5 3 1 3 2 6 4 4 19 29 29 30 28 34 34 34 33 31 30 31 34 34 33 33 33 31 30 28 26 25 25 24 24 24 24 23 23 22
4 6 4 9 11 10 10 1 4 6 5 5 4 5 5 2 1 4 13 26 28 29 27 27 32 32 31 31 31 32 34 35 35 33 34 34 32 31 29 26 26 26 25 24 24 24 23 21 21
4 3 8 8 7 5 6 6 5 7 3 3 7 7 6 3 5 7 18 25 26 28 28 30 31 30 29 31 31 35 35 35 35 33 33 33 31 29 27 26 26 25 24 23 23 23 22 20 20
5 4 8 5 4 4 6 4 6 5 3 4 6 7 4 5 6 9 13 23 29 27 27 32 29 28 27 29 34 35 34 36 36 34 33 33 31 29 26 25 26 26 25 26 25 23 20 18 18
9 6 6 5 2 4 3 1 4 5 7 4 2 3 4 4 7 10 16 17 22 20 34 32 29 25 24 27 31 33 34 36 36 34 33 32 30 28 26 25 25 25 25 25 24 21 19 17 15
5 5 5 1 2 6 5 1 1 4 3 2 3 4 5 3 11 17 20 23 27 28 29 37 33 30 27 22 28 30 33 36 35 33 31 29 27 27 25 23 22 21 22 21 20 19 17 15 13
3 5 3 1 4 7 2 4 2 2 4 3 2 5 9 18 16 19 23 25 27 31 35 35 36 33 27 23 21 27 29 31 34 32 30 27 21 20 19 18 19 18 18 18 16 16 15 12 10
7 4 2 4 6 8 5 7 3 5 5 6 5 10 16 16 17 18 19 18 23 29 32 37 36 32 24 19 18 19 21 22 29 29 24 19 18 16 17 18 18 17 16 15 14 14 13 9 6
2 7 6 8 8 7 6 1 1 5 6 5 5 12 11 13 16 16 17 20 27 32 31 39 41 36 29 19 15 17 17 24 22 23 19 17 16 17 15 15 13 14 13 12 12 9 7 6 5
8 8 7 6 5 3 2 2 2 3 6 1 12 12 10 11 12 16 17 21 27 31 32 39 43 35 30 28 18 17 16 17 16 16 17 16 15 14 13 12 12 12 11 11 10 8 9 7 7
10 9 8 5 3 2 3 1 3 4 3 9 11 9 11 11 14 16 20 23 23 22 25 29 28 28 34 28 24 11 12 14 14 17 15 15 14 13 12 12 11 11 12 10 10 10 8 7 6
6 9 1 3 1 3 4 4 4 6 7 9 11 9 12 12 15 18 17 22 22 21 26 31 31 30 32 23 19 14 12 14 16 16 14 13 12 11 11 10 10 10 10 10 9 8 6 5 4
9 8 6 6 4 2 4 5 6 9 8 10 10 12 12 12 16 18 17 19 28 31 32 31 28 24 20 16 14 14 15 17 16 13 12 11 12 11 11 10 10 10 10 10 9 7 6 5 3
8 7 5 4 6 3 6 9 8 10 9 10 11 11 13 14 16 20 17 20 30 31 28 26 24 22 15 13 14 15 16 16 15 14 11 11 12 12 12 11 11 12 11 10 8 7 5 3 1
7 5 6 3 6 2 6 4 10 10 8 10 11 12 13 13 15 17 22 24 25 24 25 22 24 22 15 14 12 13 14 15 15 13 13 12 13 13 12 12 13 13 11 10 9 7 4 3 1
6 7 5 2 4 6 7 6 8 11 11 9 11 13 14 15 17 21 23 24 23 23 24 25 23 18 15 14 12 13 14 15 14 15 14 14 12 15 13 13 14 13 12 11 9 8 5 3 1
4 6 6 1 2 4 8 10 7 13 12 12 11 11 13 13 17 21 22 25 26 25 25 26 24 20 18 16 17 15 16 17 15 13 13 13 13 14 15 14 14 14 12 11 10 8 5 3 1
6 6 4 1 2 5 7 7 5 12 13 12 12 12 12 12 14 20 23 25 25 27 28 28 28 24 21 18 17 15 16 16 15 14 13 14 14 16 15 16 15 14 13 12 10 8 5 3 2
9 7 3 3 1 6 6 7 8 9 11 11 12 12 13 14 16 16 23 26 26 28 28 27 26 24 22 20 17 16 15 13 16 16 15 15 15 17 17 16 16 16 14 13 11 10 8 5 4
11 2 3 5 6 4 3 4 7 9 12 15 14 15 14 15 15 16 20 25 27 26 25 25 24 24 22 22 20 21 20 18 19 17 15 15 17 18 17 18 18 18 16 15 14 12 10 7 9
7 1 4 5 6 4 6 6 8 5 9 14 17 18 17 17 18 19 22 26 26 25 26 26 26 25 24 24 23 22 22 19 16 16 16 16 16 17 18 19 19 19 17 16 14 13 11 11 14
5 3 4 4 5 6 4 6 4 5 5 3 6 17 18 18 18 18 22 23 24 26 27 27 28 28 26 21 21 21 21 21 16 19 19 19 19 19 19 19 19 17 15 15 14 12 11 12 11
9 7 6 6 6 7 3 6 8 2 3 6 8 7 14 19 19 19 20 24 25 28 28 29 29 30 27 29 25 29 25 22 24 23 24 24 22 21 22 23 20 18 16 15 13 13 11 11 11
13 11 6 4 5 4 3 6 2 3 5 7 7 8 8 12 17 20 19 23 24 26 28 28 29 28 29 28 29 21 22 25 23 24 22 23 26 24 27 26 23 19 16 15 12 13 10 10 9
7 8 1 2 1 4 4 5 8 1 2 2 3 4 3 6 12 15 18 23 23 22 25 27 26 26 26 27 25 22 24 23 22 22 21 21 27 27 26 28 24 20 19 15 13 8 11 10 9
5 9 5 4 5 6 4 5 2 4 4 1 2 3 3 1 3 6 8 12 16 19 20 21 23 24 23 23 23 19 18 19 19 20 22 24 24 25 22 24 22 18 19 17 15 11 12 7 7
6 6 4 3 3 5 5 5 2 6 2 3 1 2 4 3 1 3 5 7 10 13 15 17 18 18 19 19 20 17 17 17 17 19 19 20 22 25 26 26 23 22 22 19 14 12 9 8 11
7 9 10 6 6 3 5 8 5 9 6 5 4 3 4 5 3 2 5 7 8 9 10 11 12 14 15 15 16 15 13 11 13 14 14 14 17 24 21 23 23 24 18 15 17 13 9 7 13
Wind_Direction
157 194 210 222 242 237 245 233 277 195 204 41 303 253 34 33 335 334 68 159 161 159 162 158 156 154 156 160 157 154 152 150 149 145 141 136 133 130 126 124 123 122 122 120 118 115 110 106 101
174 187 215 243 251 231 231 212 222 99 23 340 160 224 182 92 42 96 159 164 161 159 161 164 160 157 158 157 156 154 153 150 145 140 137 134 132 129 127 122 118 116 117 122 120 119 113 109 101
197 225 258 254 252 255 254 147 21 284 267 224 185 290 50 73 97 172 212 173 162 161 162 163 163 161 160 159 157 155 151 145 142 139 136 133 132 130 124 120 117 115 115 117 119 120 116 110 101
219 196 216 249 253 241 268 307 308 293 214 221 236 140 106 121 190 207 166 162 161 159 160 166 164 164 162 158 155 150 145 143 141 140 138 136 135 130 126 122 123 123 122 121 121 120 115 109 103
222 248 259 252 269 257 245 283 288 285 263 191 210 150 116 28 75 145 157 160 159 156 154 159 161 160 156 154 152 150 148 144 142 141 136 136 134 132 129 127 124 122 121 122 121 118 114 110 102
227 278 246 259 225 234 273 293 269 241 181 118 207 136 105 108 117 139 156 154 156 154 152 152 151 149 152 155 156 150 147 144 144 141 139 137 137 134 133 128 122 119 118 120 121 118 116 110 103
275 266 304 306 343 238 18 344 256 253 210 170 355 188 106 121 122 130 138 145 156 151 144 148 147 144 148 155 152 147 148 145 145 143 143 139 139 135 131 129 125 123 121 121 121 122 118 114 106
277 274 268 131 12 52 36 303 282 262 223 11 301 198 167 150 124 112 130 131 138 141 136 144 147 146 139 144 147 151 151 150 146 141 140 138 137 136 131 130 130 128 125 126 127 124 123 118 112
244 257 271 309 292 3 65 287 194 280 245 164 346 320 106 138 132 110 105 104 115 131 137 147 139 132 137 156 156 152 151 150 144 144 143 135 136 134 127 137 135 140 138 133 130 134 130 123 112
249 268 359 332 328 315 309 287 187 235 216 191 94 96 129 142 130 117 111 104 116 120 121 136 137 133 144 137 144 136 143 144 144 148 142 148 144 142 138 137 140 141 142 140 139 138 126 102 98
211 278 345 325 338 304 330 318 224 279 246 354 168 145 137 135 126 117 123 131 126 119 116 130 135 136 135 146 145 146 153 148 151 150 159 157 147 143 141 137 140 138 143 138 136 129 118 116 102
269 265 299 318 333 305 250 80 21 0 346 304 130 146 127 125 127 124 120 125 132 133 136 137 141 141 145 139 148 150 146 157 159 168 170 158 154 153 154 158 160 158 156 150 140 136 128 121 105
254 304 327 349 199 129 167 80 114 76 91 108 126 112 118 113 115 112 124 133 137 142 129 145 151 151 148 156 149 157 180 161 168 185 169 171 164 162 164 162 159 160 149 148 143 143 138 126 98
345 300 320 97 202 133 242 145 213 121 145 129 136 138 116 125 124 135 136 137 138 132 135 148 154 158 157 161 182 195 173 174 187 185 179 176 170 172 174 167 160 150 153 152 152 155 145 132 111
292 261 166 177 172 214 209 187 92 135 153 122 115 115 113 140 151 145 150 154 151 152 151 159 162 161 166 164 188 190 193 190 187 185 184 183 178 177 175 170 160 161 165 153 150 147 146 130 96
272 248 148 173 194 155 244 88 135 151 166 147 136 130 133 146 161 156 157 159 154 158 163 166 177 174 187 186 187 191 191 187 189 188 190 194 192 185 178 170 171 171 162 165 168 167 151 130 72
212 273 249 207 195 186 245 64 147 171 181 154 150 143 141 147 178 175 166 168 174 180 182 183 181 190 200 196 193 196 195 191 192 197 194 196 192 184 179 181 178 171 172 171 172 166 158 142 167
212 217 203 248 150 230 242 268 162 181 189 183 165 155 160 167 187 194 184 175 181 186 187 184 189 199 202 194 196 197 197 198 201 201 201 197 195 195 186 191 181 176 180 172 172 162 154 156 229
268 267 268 98 95 256 255 265 196 179 206 195 197 184 178 178 177 188 190 193 193 194 194 197 200 204 207 201 196 194 198 201 205 204 203 200 202 196 195 196 185 183 182 177 166 162 156 167 208
237 248 205 185 9 281 274 264 208 193 200 211 206 209 202 191 178 187 193 192 195 198 204 207 210 208 206 208 205 204 206 206 210 215 214 205 205 198 197 197 188 185 177 173 172 171 175 175 191
229 275 229 292 236 258 283 230 201 198 204 205 216 213 206 206 192 191 196 201 199 202 202 204 206 207 206 208 202 205 203 206 206 212 207 204 204 205 201 193 188 183 182 181 179 181 182 197 214
244 191 278 262 230 251 216 206 187 195 207 217 209 213 207 205 209 201 199 205 206 208 206 208 208 211 211 209 206 205 205 212 217 218 212 206 205 206 198 192 188 186 185 186 190 187 184 182 217
253 89 278 275 240 250 195 257 116 186 223 219 217 210 211 204 205 209 206 207 206 206 208 207 208 211 212 211 213 214 220 225 223 212 203 199 200 200 196 196 192 193 189 189 191 185 190 219 222
132 202 237 239 234 235 192 263 189 199 240 230 218 214 217 213 213 217 214 209 209 208 207 207 209 213 212 208 218 228 229 225 207 209 199 199 198 199 197 199 197 198 193 188 190 194 219 240 226
206 236 232 216 209 247 147 238 273 204 255 267 283 248 223 221 217 218 217 211 208 205 204 205 207 211 202 198 218 220 224 226 214 212 203 194 195 197 198 196 194 196 193 191 191 219 234 214 219
209 220 233 236 224 208 165 240 144 28 297 277 275 278 262 231 222 224 221 220 215 213 205 205 205 205 201 203 211 222 228 221 217 221 211 204 199 201 203 195 194 192 191 196 220 228 212 227 224
170 216 291 173 1 269 245 234 246 193 198 262 294 257 267 232 219 223 229 223 219 216 211 210 209 204 204 201 198 220 220 215 219 220 212 208 210 208 210 201 195 191 197 213 220 198 219 215 231
270 139 189 213 234 237 183 257 291 186 189 95 356 20 46 105 187 202 220 219 221 217 212 209 212 209 206 204 202 215 216 213 218 213 212 215 212 207 206 199 194 194 201 204 200 205 220 225 257
174 204 222 280 257 262 264 261 233 252 260 251 230 317 328 344 121 167 188 185 190 195 198 202 208 207 204 206 206 210 215 219 216 214 218 212 207 209 201 198 197 200 201 199 199 201 206 221 291
259 232 216 241 223 251 288 264 218 262 269 246 246 256 286 300 291 139 146 152 155 163 171 184 195 201 204 203 204 214 216 215 212 216 216 212 209 216 205 203 201 204 192 194 192 201 207 310 280